GLO1219 SBSG-SBPL

Flight info

Callsign GLO1219
Flight time 1h 2m
Altitude 38000
Route OPVAR UZ94 MEBLO
Aircraft B737/M-SDE2E3FGHIRWXY/LB1

Departure

Time 2026-04-22 22:38
Airport Rio Grande do Norte/São Gonçalo do Amarante–Governador Aluízio Alves International Airport (SBSG)

Arrival

Time 2026-04-22 23:41
Airport Senador Nilo Coelho Airport (SBPL)
Time Latitude Longitude Altitude Speed Heading
2026-04-22 22:06 -5.76452 -35.37106 254 ft 0 kts
2026-04-22 22:29 -5.76457 -35.37107 273 ft 2 kts
2026-04-22 22:30 -5.76474 -35.37109 273 ft 2 kts
2026-04-22 22:30 -5.76491 -35.37110 273 ft 2 kts 359°
2026-04-22 22:30 -5.76507 -35.37109 275 ft 2 kts 351°
2026-04-22 22:30 -5.76514 -35.37107 277 ft 2 kts 346°
2026-04-22 22:31 -5.76525 -35.37104 274 ft 2 kts 335°
2026-04-22 22:31 -5.76538 -35.37095 275 ft 2 kts 313°
2026-04-22 22:31 -5.76547 -35.37082 273 ft 2 kts 291°
2026-04-22 22:31 -5.76552 -35.37069 273 ft 1 kts 283°
2026-04-22 22:32 -5.76553 -35.37063 273 ft 0 kts 282°
2026-04-22 22:35 -5.76552 -35.37066 273 ft 3 kts 280°
2026-04-22 22:35 -5.76539 -35.37144 277 ft 19 kts 279°
2026-04-22 22:35 -5.76638 -35.37252 273 ft 27 kts 189°
2026-04-22 22:36 -5.76690 -35.37373 272 ft 21 kts 279°
2026-04-22 22:36 -5.76659 -35.37555 272 ft 30 kts 280°
2026-04-22 22:36 -5.76625 -35.37754 273 ft 28 kts 279°
2026-04-22 22:36 -5.76620 -35.37937 274 ft 26 kts 233°
2026-04-22 22:37 -5.76760 -35.37976 276 ft 12 kts 146°
2026-04-22 22:37 -5.76768 -35.37953 272 ft 0 kts 99°
2026-04-22 22:37 -5.76768 -35.37952 272 ft 0 kts 99°
2026-04-22 22:37 -5.76773 -35.37922 274 ft 18 kts 98°
2026-04-22 22:38 -5.76851 -35.37450 272 ft 117 kts 99°
2026-04-22 22:38 -5.77022 -35.36415 666 ft 162 kts 100°
2026-04-22 22:38 -5.77203 -35.35279 1939 ft 164 kts 102°
2026-04-22 22:38 -5.77283 -35.34063 2907 ft 204 kts 83°
2026-04-22 22:39 -5.76397 -35.32691 3561 ft 250 kts 34°
2026-04-22 22:39 -5.74751 -35.32228 4986 ft 258 kts 359°
2026-04-22 22:39 -5.73081 -35.32793 6311 ft 263 kts 323°
2026-04-22 22:39 -5.71936 -35.34251 7488 ft 271 kts 289°
2026-04-22 22:40 -5.71446 -35.36091 8856 ft 273 kts 281°
2026-04-22 22:40 -5.71047 -35.37947 10151 ft 279 kts 281°
2026-04-22 22:40 -5.70620 -35.39819 11156 ft 262 kts 282°
2026-04-22 22:40 -5.70162 -35.41660 11560 ft 284 kts 284°
2026-04-22 22:41 -5.69654 -35.43582 12226 ft 292 kts 284°
2026-04-22 22:41 -5.69105 -35.45600 13061 ft 297 kts 285°
2026-04-22 22:41 -5.68536 -35.47600 13889 ft 301 kts 285°
2026-04-22 22:41 -5.68306 -35.49692 14592 ft 304 kts 262°
2026-04-22 22:42 -5.68736 -35.51769 15396 ft 305 kts 255°
2026-04-22 22:42 -5.69268 -35.53844 16145 ft 309 kts 254°
2026-04-22 22:42 -5.69822 -35.55943 16875 ft 313 kts 254°
2026-04-22 22:42 -5.70144 -35.57167 17315 ft 316 kts 254°
2026-04-22 22:43 -5.70469 -35.58405 17750 ft 318 kts 254°
2026-04-22 22:43 -5.71038 -35.60597 18470 ft 322 kts 255°
2026-04-22 22:43 -5.71593 -35.62758 19124 ft 325 kts 255°
2026-04-22 22:43 -5.72155 -35.64962 19807 ft 327 kts 255°
2026-04-22 22:44 -5.72726 -35.67212 20508 ft 330 kts 255°
2026-04-22 22:44 -5.73293 -35.69452 21185 ft 332 kts 255°
2026-04-22 22:44 -5.73863 -35.71711 21852 ft 335 kts 255°
2026-04-22 22:44 -5.74438 -35.73994 22484 ft 339 kts 255°
2026-04-22 22:45 -5.75019 -35.76298 23123 ft 343 kts 256°
2026-04-22 22:45 -5.75617 -35.78674 23424 ft 362 kts 256°
2026-04-22 22:45 -5.76028 -35.80308 23513 ft 368 kts 256°
2026-04-22 22:45 -5.76663 -35.82830 24292 ft 362 kts 256°
2026-04-22 22:46 -5.77263 -35.85215 25459 ft 343 kts 256°
2026-04-22 22:46 -5.77840 -35.87509 26034 ft 334 kts 256°
2026-04-22 22:46 -5.78435 -35.89875 26274 ft 347 kts 256°
2026-04-22 22:46 -5.79035 -35.92261 26558 ft 357 kts 256°
2026-04-22 22:47 -5.79641 -35.94672 26996 ft 363 kts 256°
2026-04-22 22:47 -5.80261 -35.97139 27537 ft 366 kts 256°
2026-04-22 22:47 -5.80894 -35.99656 28092 ft 368 kts 256°
2026-04-22 22:47 -5.81520 -36.02148 28625 ft 371 kts 256°
2026-04-22 22:48 -5.82157 -36.04683 29143 ft 375 kts 256°
2026-04-22 22:48 -5.82804 -36.07262 29666 ft 378 kts 256°
2026-04-22 22:48 -5.83444 -36.09808 30148 ft 381 kts 256°
2026-04-22 22:48 -5.84100 -36.12423 30583 ft 384 kts 256°
2026-04-22 22:49 -5.84754 -36.15026 31018 ft 386 kts 256°
2026-04-22 22:49 -5.85415 -36.17659 31430 ft 389 kts 256°
2026-04-22 22:49 -5.86087 -36.20335 31843 ft 392 kts 256°
2026-04-22 22:49 -5.87012 -36.22877 32188 ft 395 kts 240°
2026-04-22 22:50 -5.88422 -36.25241 32603 ft 397 kts 237°
2026-04-22 22:50 -5.89921 -36.27585 32982 ft 400 kts 237°
2026-04-22 22:50 -5.91466 -36.29971 33349 ft 402 kts 237°
2026-04-22 22:50 -5.93006 -36.32367 33721 ft 405 kts 237°
2026-04-22 22:51 -5.94520 -36.34753 34063 ft 407 kts 237°
2026-04-22 22:51 -5.96038 -36.37169 34356 ft 409 kts 238°
2026-04-22 22:51 -5.97551 -36.39593 34646 ft 411 kts 238°
2026-04-22 22:51 -5.99090 -36.42066 34943 ft 413 kts 238°
2026-04-22 22:52 -6.00617 -36.44525 35228 ft 415 kts 238°
2026-04-22 22:52 -6.02144 -36.46983 35499 ft 417 kts 238°
2026-04-22 22:52 -6.03682 -36.49457 35779 ft 418 kts 238°
2026-04-22 22:52 -6.05247 -36.51977 35999 ft 421 kts 238°
2026-04-22 22:53 -6.06834 -36.54530 35966 ft 430 kts 238°
2026-04-22 22:53 -6.10053 -36.59712 35991 ft 445 kts 238°
2026-04-22 22:54 -6.13755 -36.64926 35992 ft 459 kts 230°
2026-04-22 22:54 -6.18028 -36.69877 35978 ft 472 kts 229°
2026-04-22 22:55 -6.22353 -36.74948 35969 ft 482 kts 230°
2026-04-22 22:55 -6.28819 -36.82751 35951 ft 486 kts 230°
2026-04-22 22:56 -6.33181 -36.87996 35952 ft 485 kts 230°
2026-04-22 22:56 -6.36923 -36.92471 35950 ft 485 kts 230°
2026-04-22 22:57 -6.41247 -36.97656 35950 ft 484 kts 230°
2026-04-22 22:57 -6.45550 -37.02860 35950 ft 483 kts 230°
2026-04-22 22:58 -6.49772 -37.07979 35951 ft 483 kts 231°
2026-04-22 22:58 -6.54059 -37.13173 35950 ft 482 kts 231°
2026-04-22 22:59 -6.58336 -37.18355 36577 ft 470 kts 231°
2026-04-22 22:59 -6.60291 -37.20722 37390 ft 455 kts 231°
2026-04-22 22:59 -6.62297 -37.23152 37756 ft 443 kts 231°
2026-04-22 23:00 -6.64242 -37.25509 37975 ft 436 kts 231°
2026-04-22 23:00 -6.66251 -37.27945 37946 ft 443 kts 231°
2026-04-22 23:00 -6.70260 -37.32807 37966 ft 454 kts 231°
2026-04-22 23:01 -6.74359 -37.37780 37962 ft 464 kts 230°
2026-04-22 23:01 -6.78543 -37.42854 37965 ft 473 kts 231°
2026-04-22 23:02 -6.82771 -37.47986 37967 ft 479 kts 231°
2026-04-22 23:02 -6.87041 -37.53169 37958 ft 483 kts 231°
2026-04-22 23:03 -6.91232 -37.58460 37954 ft 485 kts 234°
2026-04-22 23:03 -6.93240 -37.61192 39503 ft 485 kts 234°
2026-04-22 23:03 -6.95239 -37.63947 39242 ft 490 kts 234°
2026-04-22 23:04 -6.97246 -37.66707 38993 ft 489 kts 233°
2026-04-22 23:04 -6.99272 -37.69473 38713 ft 475 kts 233°
2026-04-22 23:04 -7.01230 -37.72128 38456 ft 472 kts 234°
2026-04-22 23:04 -7.03212 -37.74805 38241 ft 482 kts 233°
2026-04-22 23:05 -7.07292 -37.80303 38093 ft 496 kts 232°
2026-04-22 23:05 -7.09402 -37.83146 37966 ft 505 kts 233°
2026-04-22 23:05 -7.11517 -37.86002 38026 ft 510 kts 233°
2026-04-22 23:06 -7.15804 -37.91792 38023 ft 522 kts 233°
2026-04-22 23:06 -7.20504 -37.97480 38021 ft 532 kts 227°
2026-04-22 23:07 -7.25540 -38.03068 37921 ft 547 kts 225°
2026-04-22 23:07 -7.30689 -38.08799 38012 ft 557 kts 226°
2026-04-22 23:08 -7.35027 -38.13703 38018 ft 567 kts 226°
2026-04-22 23:08 -7.40581 -38.20023 38021 ft 578 kts 226°
2026-04-22 23:09 -7.45803 -38.25845 36479 ft 523 kts 233°
2026-04-22 23:09 -7.48148 -38.28539 36597 ft 493 kts 230°
2026-04-22 23:09 -7.50347 -38.31076 36789 ft 469 kts 230°
2026-04-22 23:10 -7.52477 -38.33531 37013 ft 451 kts 230°
2026-04-22 23:10 -7.59573 -38.41634 37712 ft 427 kts 229°
2026-04-22 23:10 -7.67005 -38.50275 38069 ft 435 kts 231°
2026-04-22 23:10 -7.68505 -38.52122 38064 ft 439 kts 232°
2026-04-22 23:11 -7.72439 -38.57008 38025 ft 451 kts 232°
2026-04-22 23:11 -7.76981 -38.62600 38069 ft 461 kts 231°
2026-04-22 23:11 -7.81415 -38.68005 38003 ft 471 kts 231°
2026-04-22 23:12 -8.01107 -38.92074 37928 ft 476 kts 232°
2026-04-22 23:12 -8.06218 -38.98407 37983 ft 466 kts 232°
2026-04-22 23:13 -8.16515 -39.10999 37697 ft 451 kts 232°
2026-04-22 23:13 -8.18513 -39.13443 37112 ft 450 kts 232°
2026-04-22 23:13 -8.20483 -39.15856 36690 ft 445 kts 232°
2026-04-22 23:14 -8.22449 -39.18266 36239 ft 441 kts 232°
2026-04-22 23:14 -8.24394 -39.20652 35792 ft 438 kts 232°
2026-04-22 23:14 -8.31055 -39.28816 34213 ft 431 kts 232°
2026-04-22 23:14 -8.32966 -39.31163 33687 ft 430 kts 232°
2026-04-22 23:15 -8.34888 -39.33526 33205 ft 428 kts 232°
2026-04-22 23:15 -8.36790 -39.35865 32740 ft 425 kts 232°
2026-04-22 23:15 -8.38659 -39.38163 32288 ft 423 kts 232°
2026-04-22 23:15 -8.40521 -39.40451 31854 ft 420 kts 232°
2026-04-22 23:16 -8.42373 -39.42726 31418 ft 418 kts 232°
2026-04-22 23:16 -8.44198 -39.44968 30994 ft 415 kts 232°
2026-04-22 23:16 -8.46040 -39.47233 30563 ft 413 kts 232°
2026-04-22 23:16 -8.47863 -39.49474 30117 ft 412 kts 232°
2026-04-22 23:17 -8.49643 -39.51661 29647 ft 409 kts 231°
2026-04-22 23:17 -8.51471 -39.53909 29160 ft 406 kts 231°
2026-04-22 23:17 -8.53264 -39.56114 28682 ft 403 kts 231°
2026-04-22 23:17 -8.55031 -39.58288 28227 ft 399 kts 231°
2026-04-22 23:18 -8.56787 -39.60448 27784 ft 396 kts 231°
2026-04-22 23:18 -8.58530 -39.62593 27334 ft 393 kts 231°
2026-04-22 23:18 -8.60253 -39.64715 26895 ft 390 kts 231°
2026-04-22 23:18 -8.61977 -39.66837 26454 ft 387 kts 231°
2026-04-22 23:19 -8.63675 -39.68926 26020 ft 385 kts 231°
2026-04-22 23:19 -8.65392 -39.71040 25577 ft 382 kts 231°
2026-04-22 23:19 -8.67070 -39.73106 25149 ft 380 kts 231°
2026-04-22 23:19 -8.68748 -39.75173 24695 ft 379 kts 231°
2026-04-22 23:20 -8.70415 -39.77225 24255 ft 378 kts 231°
2026-04-22 23:20 -8.72076 -39.79273 23799 ft 374 kts 231°
2026-04-22 23:20 -8.73704 -39.81280 23303 ft 365 kts 231°
2026-04-22 23:20 -8.75333 -39.83288 22839 ft 363 kts 231°
2026-04-22 23:21 -8.76910 -39.85233 22397 ft 361 kts 231°
2026-04-22 23:21 -8.78499 -39.87193 21950 ft 360 kts 231°
2026-04-22 23:21 -8.80078 -39.89141 21531 ft 358 kts 231°
2026-04-22 23:21 -8.81652 -39.91084 21101 ft 356 kts 231°
2026-04-22 23:22 -8.83221 -39.93020 20672 ft 355 kts 231°
2026-04-22 23:22 -8.84783 -39.94947 20245 ft 354 kts 231°
2026-04-22 23:22 -8.86338 -39.96867 19804 ft 353 kts 231°
2026-04-22 23:22 -8.87917 -39.98817 19374 ft 352 kts 231°
2026-04-22 23:23 -8.89470 -40.00735 18933 ft 352 kts 231°
2026-04-22 23:23 -8.91039 -40.02672 18492 ft 352 kts 230°
2026-04-22 23:23 -8.92590 -40.04587 18017 ft 351 kts 230°
2026-04-22 23:23 -8.94132 -40.06493 17566 ft 348 kts 230°
2026-04-22 23:24 -8.95646 -40.08364 17112 ft 338 kts 230°
2026-04-22 23:24 -8.97121 -40.10187 16711 ft 334 kts 230°
2026-04-22 23:24 -8.98589 -40.12001 16290 ft 332 kts 230°
2026-04-22 23:24 -9.00048 -40.13805 15896 ft 331 kts 230°
2026-04-22 23:25 -9.01507 -40.15608 15494 ft 330 kts 230°
2026-04-22 23:25 -9.02956 -40.17400 15083 ft 329 kts 230°
2026-04-22 23:25 -9.04404 -40.19191 14659 ft 329 kts 230°
2026-04-22 23:25 -9.05846 -40.20974 14243 ft 328 kts 230°
2026-04-22 23:26 -9.07291 -40.22761 13819 ft 328 kts 230°
2026-04-22 23:26 -9.08753 -40.24570 13346 ft 327 kts 229°
2026-04-22 23:26 -9.10156 -40.26308 13415 ft 306 kts 229°
2026-04-22 23:26 -9.11465 -40.27929 13269 ft 288 kts 229°
2026-04-22 23:27 -9.12687 -40.29453 13164 ft 270 kts 232°
2026-04-22 23:27 -9.13490 -40.31092 13023 ft 254 kts 255°
2026-04-22 23:27 -9.13849 -40.32786 12919 ft 238 kts 258°
2026-04-22 23:27 -9.14144 -40.34385 12802 ft 224 kts 259°
2026-04-22 23:28 -9.14417 -40.35884 12639 ft 213 kts 258°
2026-04-22 23:28 -9.14684 -40.37344 12312 ft 209 kts 258°
2026-04-22 23:28 -9.14951 -40.38785 11971 ft 209 kts 258°
2026-04-22 23:28 -9.15220 -40.40229 11634 ft 208 kts 258°
2026-04-22 23:29 -9.15489 -40.41665 11280 ft 207 kts 258°
2026-04-22 23:29 -9.15668 -40.42623 11076 ft 205 kts 258°
2026-04-22 23:29 -9.15934 -40.44035 10714 ft 205 kts 257°
2026-04-22 23:29 -9.16204 -40.45465 10346 ft 205 kts 257°
2026-04-22 23:30 -9.16471 -40.46879 10016 ft 204 kts 257°
2026-04-22 23:30 -9.16736 -40.48282 9664 ft 203 kts 257°
2026-04-22 23:30 -9.17001 -40.49684 9286 ft 202 kts 257°
2026-04-22 23:30 -9.17265 -40.51078 8936 ft 201 kts 257°
2026-04-22 23:31 -9.17526 -40.52459 8584 ft 200 kts 257°
2026-04-22 23:31 -9.17790 -40.53851 8226 ft 200 kts 257°
2026-04-22 23:31 -9.18059 -40.55271 7871 ft 199 kts 257°
2026-04-22 23:31 -9.18319 -40.56647 7523 ft 198 kts 257°
2026-04-22 23:32 -9.18576 -40.58004 7251 ft 195 kts 257°
2026-04-22 23:32 -9.18832 -40.59354 7016 ft 196 kts 257°
2026-04-22 23:32 -9.19090 -40.60719 6750 ft 197 kts 257°
2026-04-22 23:32 -9.19350 -40.62091 6504 ft 195 kts 257°
2026-04-22 23:33 -9.19603 -40.63430 6254 ft 193 kts 256°
2026-04-22 23:33 -9.19854 -40.64758 6023 ft 190 kts 256°
2026-04-22 23:33 -9.20101 -40.66066 5777 ft 189 kts 256°
2026-04-22 23:33 -9.20350 -40.67383 5575 ft 193 kts 256°
2026-04-22 23:34 -9.20604 -40.68722 5375 ft 195 kts 255°
2026-04-22 23:34 -9.20947 -40.70012 5220 ft 185 kts 233°
2026-04-22 23:34 -9.21847 -40.70794 5169 ft 165 kts 198°
2026-04-22 23:34 -9.22967 -40.71227 5149 ft 180 kts 194°
2026-04-22 23:35 -9.24157 -40.71645 5035 ft 179 kts 193°
2026-04-22 23:35 -9.25322 -40.72053 4949 ft 176 kts 193°
2026-04-22 23:35 -9.26445 -40.72446 4855 ft 166 kts 192°
2026-04-22 23:35 -9.27581 -40.72842 4789 ft 162 kts 192°
2026-04-22 23:36 -9.28661 -40.73215 4655 ft 166 kts 193°
2026-04-22 23:36 -9.29786 -40.73414 4435 ft 159 kts 162°
2026-04-22 23:36 -9.30648 -40.72857 4308 ft 146 kts 126°
2026-04-22 23:36 -9.31037 -40.71922 4199 ft 145 kts 110°
2026-04-22 23:37 -9.31385 -40.70950 4088 ft 146 kts 111°
2026-04-22 23:37 -9.31733 -40.69979 3898 ft 147 kts 111°
2026-04-22 23:37 -9.32073 -40.69012 3736 ft 144 kts 111°
2026-04-22 23:37 -9.32404 -40.68058 3522 ft 142 kts 112°
2026-04-22 23:38 -9.32733 -40.67113 3349 ft 143 kts 112°
2026-04-22 23:38 -9.33046 -40.66206 3165 ft 126 kts 112°
2026-04-22 23:38 -9.33326 -40.65403 2981 ft 117 kts 114°
2026-04-22 23:38 -9.33592 -40.64629 2771 ft 118 kts 114°
2026-04-22 23:39 -9.33921 -40.63722 2738 ft 140 kts 112°
2026-04-22 23:39 -9.34197 -40.62790 2363 ft 140 kts 109°
2026-04-22 23:39 -9.34496 -40.61864 2034 ft 136 kts 113°
2026-04-22 23:39 -9.34815 -40.60941 1763 ft 145 kts 112°
2026-04-22 23:40 -9.35170 -40.59992 1659 ft 142 kts 111°
2026-04-22 23:40 -9.35496 -40.59084 1464 ft 131 kts 111°
2026-04-22 23:40 -9.35740 -40.58408 1329 ft 126 kts 110°
2026-04-22 23:40 -9.36011 -40.57610 1256 ft 110 kts 108°
2026-04-22 23:41 -9.36191 -40.57081 1259 ft 48 kts 109°
2026-04-22 23:41 -9.36265 -40.56866 1258 ft 29 kts 109°
2026-04-22 23:41 -9.36329 -40.56679 1257 ft 27 kts 107°
2026-04-22 23:41 -9.36429 -40.56563 1255 ft 23 kts 189°
2026-04-22 23:42 -9.36538 -40.56576 1258 ft 12 kts 129°
2026-04-22 23:42 -9.36571 -40.56549 1255 ft 7 kts 203°
2026-04-22 23:42 -9.36591 -40.56557 1254 ft 0 kts 199°